,,,PA_Meas_PMT16A,,PR_Meas_QMR101_102,,RH_Meas_QMH101,,SR_Meas_QMS101,,TA_Meas_QMH101,,GenWind,,GenWind,
date,time,status,PA,status,PR,status,RH,status,SR,status,TA,status,DirAvg,status,SpdAvg,
2012-06-27, 00:00:04,VALID,1001.44,VALID,0,VALID,92.1429,VALID,0,VALID,23.4458,VALID,106,VALID,0.486719,
2012-06-27, 00:01:04,VALID,1001.42,VALID,0,VALID,92.0895,VALID,0,VALID,23.5061,VALID,149,VALID,1.15,
2012-06-27, 00:02:04,VALID,1001.36,VALID,0,VALID,92.1277,VALID,0,VALID,23.5646,VALID,135,VALID,0.892969,
2012-06-27, 00:03:04,VALID,1001.32,VALID,0,VALID,91.9064,VALID,0,VALID,23.6427,VALID,130,VALID,0.83125,
2012-06-27, 00:04:04,VALID,1001.3,VALID,0,VALID,91.3494,VALID,0,VALID,23.7012,VALID,130,VALID,0.618359,
2012-06-27, 00:05:04,VALID,1001.28,VALID,0,VALID,90.7772,VALID,0,VALID,23.7012,VALID,130,VALID,0.564453,
2012-06-27, 00:06:04,VALID,1001.21,VALID,0,VALID,90.1211,VALID,0,VALID,23.6427,VALID,128,VALID,0.50625,
2012-06-27, 00:07:04,VALID,1001.18,VALID,0,VALID,90.3118,VALID,0,VALID,23.5841,VALID,41,VALID,0.795703,
2012-06-27, 00:08:04,VALID,1001.18,VALID,0,VALID,90.6475,VALID,0,VALID,23.5646,VALID,41,VALID,0.730859,
2012-06-27, 00:09:04,VALID,1001.11,VALID,0,VALID,90.2889,VALID,0,VALID,23.4866,VALID,67,VALID,1.17305,
2012-06-27, 00:10:04,VALID,1001.11,VALID,0,VALID,89.938,VALID,0,VALID,23.35,VALID,28,VALID,0.930859,
2012-06-27, 00:11:04,VALID,1001.09,VALID,0,VALID,91.2045,VALID,0,VALID,23.3287,VALID,58,VALID,0.275391,
2012-06-27, 00:12:04,VALID,1001.06,VALID,0,VALID,91.1282,VALID,0,VALID,23.2719,VALID,53,VALID,0.651953,
2012-06-27, 00:13:04,VALID,1001.06,VALID,0,VALID,91.792,VALID,0,VALID,23.2702,VALID,53,VALID,0.567969,
2012-06-27, 00:14:04,VALID,1001.07,VALID,0,VALID,91.8454,VALID,0,VALID,23.2915,VALID,53,VALID,0.510938,
2012-06-27, 00:15:04,VALID,1001.06,VALID,0,VALID,91.6317,VALID,0.104696,VALID,23.2719,VALID,53,VALID,0.712109,
2012-06-27, 00:16:04,VALID,1001.07,VALID,0,VALID,91.5936,VALID,0,VALID,23.2134,VALID,33,VALID,0.730078,
2012-06-27, 00:17:04,VALID,1001.08,VALID,0,VALID,91.6088,VALID,0,VALID,23.1744,VALID,33,VALID,0.507813,
2012-06-27, 00:18:04,VALID,1001.06,VALID,0,VALID,91.7843,VALID,0,VALID,23.1141,VALID,33,VALID,0.378125,
2012-06-27, 00:19:04,VALID,1001.05,VALID,0,VALID,91.9903,VALID,0,VALID,23.0964,VALID,33,VALID,0.605859,
2012-06-27, 00:20:04,VALID,1001,VALID,0,VALID,92.3642,VALID,0,VALID,23.0769,VALID,33,VALID,0.589063,
2012-06-27, 00:21:04,VALID,1000.94,VALID,0,VALID,92.6541,VALID,0,VALID,23.0769,VALID,33,VALID,0.478125,
2012-06-27, 00:22:04,VALID,1000.88,VALID,0,VALID,92.8983,VALID,0,VALID,23.0769,VALID,33,VALID,0.287109,
2012-06-27, 00:23:04,VALID,1000.84,VALID,0,VALID,92.8677,VALID,0,VALID,23.0573,VALID,33,VALID,0.240625,
2012-06-27, 00:24:04,VALID,1000.82,VALID,0,VALID,93.0051,VALID,0,VALID,23.0769,VALID,33,VALID,0.223828,
2012-06-27, 00:25:04,VALID,1000.79,VALID,0,VALID,93.1882,VALID,0,VALID,23.0964,VALID,33,VALID,0.233203,
2012-06-27, 00:26:04,VALID,1000.79,VALID,0,VALID,93.3255,VALID,0,VALID,23.1354,VALID,33,VALID,0.333203,
2012-06-27, 00:27:04,VALID,1000.76,VALID,0,VALID,93.3408,VALID,0,VALID,23.1354,VALID,33,VALID,0.350391,
2012-06-27, 00:28:04,VALID,1000.78,VALID,0,VALID,93.2797,VALID,0,VALID,23.1549,VALID,33,VALID,0.4375,
2012-06-27, 00:29:04,VALID,1000.75,VALID,0,VALID,93.2645,VALID,0,VALID,23.1549,VALID,33,VALID,0.644531,
2012-06-27, 00:30:04,VALID,1000.72,VALID,0,VALID,93.2797,VALID,0,VALID,23.1744,VALID,33,VALID,0.585938,
2012-06-27, 00:31:04,VALID,1000.69,VALID,0,VALID,93.1348,VALID,0,VALID,23.1939,VALID,33,VALID,0.721875,
2012-06-27, 00:32:04,VALID,1000.67,VALID,0,VALID,92.9059,VALID,0,VALID,23.1957,VALID,33,VALID,0.684375,
2012-06-27, 00:33:04,VALID,1000.66,VALID,0,VALID,92.41,VALID,0,VALID,23.1354,VALID,33,VALID,0.592969,
2012-06-27, 00:34:04,VALID,1000.66,VALID,0,VALID,92.4252,VALID,0,VALID,23.0964,VALID,33,VALID,0.324609,
2012-06-27, 00:35:04,VALID,1000.68,VALID,0,VALID,92.7075,VALID,0,VALID,23.0769,VALID,33,VALID,0.26875,
2012-06-27, 00:36:04,VALID,1000.69,VALID,0,VALID,92.8296,VALID,0,VALID,23.0769,VALID,33,VALID,0.254297,
2012-06-27, 00:37:04,VALID,1000.69,VALID,0,VALID,92.9974,VALID,0,VALID,23.0556,VALID,33,VALID,0,
2012-06-27, 00:38:04,VALID,1000.66,VALID,0,VALID,93.1119,VALID,0,VALID,23.0573,VALID,33,VALID,0,
2012-06-27, 00:39:04,VALID,1000.64,VALID,0,VALID,93.1882,VALID,0,VALID,23.0573,VALID,33,VALID,0,
2012-06-27, 00:40:04,VALID,1000.62,VALID,0,VALID,93.2645,VALID,0,VALID,23.0378,VALID,33,VALID,0,
2012-06-27, 00:41:04,VALID,1000.62,VALID,0,VALID,93.3255,VALID,0,VALID,23.0378,VALID,33,VALID,0,
2012-06-27, 00:42:04,VALID,1000.58,VALID,0,VALID,93.4171,VALID,0,VALID,23.0378,VALID,33,VALID,0,
2012-06-27, 00:43:04,VALID,1000.6,VALID,0,VALID,93.3866,VALID,0,VALID,23.0378,VALID,33,VALID,0,
2012-06-27, 00:44:04,VALID,1000.59,VALID,0,VALID,93.4552,VALID,0,VALID,23.0378,VALID,33,VALID,0.1375,
2012-06-27, 00:45:04,VALID,1000.58,VALID,0,VALID,93.3866,VALID,0,VALID,22.9988,VALID,33,VALID,0.416797,
2012-06-27, 00:46:04,VALID,1000.57,VALID,0,VALID,93.5163,VALID,0,VALID,23.0183,VALID,33,VALID,0.578125,
2012-06-27, 00:47:04,VALID,1000.54,VALID,0,VALID,93.6231,VALID,0,VALID,23.0183,VALID,33,VALID,0.666016,
2012-06-27, 00:48:04,VALID,1000.56,VALID,0,VALID,93.6231,VALID,0,VALID,22.9988,VALID,33,VALID,0.717578,
2012-06-27, 00:49:04,VALID,1000.53,VALID,0,VALID,93.4857,VALID,0,VALID,22.9988,VALID,33,VALID,0.858203,
2012-06-27, 00:50:04,VALID,1000.49,VALID,0,VALID,93.2263,VALID,0,VALID,22.9793,VALID,33,VALID,1.00039,
2012-06-27, 00:51:04,VALID,1000.53,VALID,0,VALID,92.8372,VALID,0,VALID,22.9403,VALID,33,VALID,1.04609,
2012-06-27, 00:52:04,VALID,1000.56,VALID,0,VALID,91.9827,VALID,0,VALID,22.8818,VALID,37,VALID,1.23359,
2012-06-27, 00:53:04,VALID,1000.56,VALID,0,VALID,91.6012,VALID,0,VALID,22.7825,VALID,47,VALID,1.34648,
2012-06-27, 00:54:04,VALID,1000.58,VALID,0,VALID,91.5631,VALID,0,VALID,22.8037,VALID,47,VALID,1.33203,
2012-06-27, 00:55:04,VALID,1000.59,VALID,0,VALID,91.441,VALID,0,VALID,22.7647,VALID,47,VALID,1.05,
2012-06-27, 00:56:04,VALID,1000.58,VALID,0,VALID,91.3189,VALID,0,VALID,22.7257,VALID,47,VALID,0.856641,
2012-06-27, 00:57:04,VALID,1000.58,VALID,0,VALID,91.4105,VALID,0,VALID,22.7062,VALID,47,VALID,0.922266,
2012-06-27, 00:58:04,VALID,1000.6,VALID,0,VALID,91.7385,VALID,0,VALID,22.685,VALID,47,VALID,0.914844,
2012-06-27, 00:59:04,VALID,1000.62,VALID,0,VALID,92.204,VALID,0,VALID,22.7257,VALID,56,VALID,0.938672,
2012-06-27, 01:00:04,VALID,1000.63,VALID,0,VALID,92.5015,VALID,0,VALID,22.7647,VALID,56,VALID,0.641797,
2012-06-27, 01:01:04,VALID,1000.62,VALID,0,VALID,92.7685,VALID,0,VALID,22.8232,VALID,56,VALID,0.596484,
2012-06-27, 01:02:04,VALID,1000.66,VALID,0,VALID,92.8983,VALID,0,VALID,22.8232,VALID,56,VALID,0.295703,
2012-06-27, 01:03:04,VALID,1000.67,VALID,0,VALID,92.9745,VALID,0,VALID,22.8232,VALID,56,VALID,0.153516,
2012-06-27, 01:04:04,VALID,1000.68,VALID,0,VALID,92.9211,VALID,0,VALID,22.8037,VALID,56,VALID,0,
2012-06-27, 01:05:04,VALID,1000.63,VALID,0,VALID,92.6541,VALID,0,VALID,22.7647,VALID,56,VALID,0.507031,
2012-06-27, 01:06:04,VALID,1000.6,VALID,0,VALID,92.6541,VALID,0.104696,VALID,22.7435,VALID,56,VALID,0.289063,
2012-06-27, 01:07:04,VALID,1000.55,VALID,0,VALID,92.822,VALID,0,VALID,22.7825,VALID,19,VALID,0.676172,
2012-06-27, 01:08:04,VALID,1000.54,VALID,0,VALID,93.3026,VALID,0,VALID,22.8605,VALID,19,VALID,0.525,
2012-06-27, 01:09:04,VALID,1000.54,VALID,0,VALID,92.532,VALID,0,VALID,22.8623,VALID,10,VALID,0.757031,
2012-06-27, 01:10:04,VALID,1000.53,VALID,0,VALID,92.0514,VALID,0,VALID,22.8427,VALID,10,VALID,0.513672,
2012-06-27, 01:11:04,VALID,1000.48,VALID,0,VALID,91.8454,VALID,0,VALID,22.8037,VALID,332,VALID,0.633984,
2012-06-27, 01:12:04,VALID,1000.45,VALID,0,VALID,91.7996,VALID,0,VALID,22.7647,VALID,332,VALID,0.938281,
2012-06-27, 01:13:04,VALID,1000.4,VALID,0,VALID,92.0666,VALID,0,VALID,22.7452,VALID,332,VALID,0.671094,
2012-06-27, 01:14:04,VALID,1000.38,VALID,0,VALID,92.3718,VALID,0,VALID,22.7452,VALID,332,VALID,0.554688,
2012-06-27, 01:15:04,VALID,1000.35,VALID,0,VALID,92.4481,VALID,0,VALID,22.7647,VALID,332,VALID,0.465625,
2012-06-27, 01:16:04,VALID,1000.34,VALID,0,VALID,92.3108,VALID,0,VALID,22.724,VALID,332,VALID,0.555859,
2012-06-27, 01:17:04,VALID,1000.35,VALID,0,VALID,92.2192,VALID,0,VALID,22.7257,VALID,332,VALID,0.561328,
2012-06-27, 01:18:04,VALID,1000.37,VALID,0,VALID,92.2879,VALID,0,VALID,22.7062,VALID,332,VALID,0.244531,
2012-06-27, 01:19:04,VALID,1000.32,VALID,0,VALID,92.2574,VALID,0,VALID,22.6672,VALID,332,VALID,0.244922,
2012-06-27, 01:20:04,VALID,1000.31,VALID,0,VALID,92.3108,VALID,0,VALID,22.6477,VALID,332,VALID,0.344531,
2012-06-27, 01:21:04,VALID,1000.35,VALID,0,VALID,92.4176,VALID,0,VALID,22.6477,VALID,332,VALID,0.214844,
2012-06-27, 01:22:04,VALID,1000.34,VALID,0,VALID,92.738,VALID,0,VALID,22.646,VALID,332,VALID,0.344141,
2012-06-27, 01:23:04,VALID,1000.38,VALID,0,VALID,92.9898,VALID,0,VALID,22.6672,VALID,332,VALID,0.196094,
2012-06-27, 01:24:04,VALID,1000.35,VALID,0,VALID,93.0661,VALID,0,VALID,22.6672,VALID,332,VALID,0,
2012-06-27, 01:25:04,VALID,1000.39,VALID,0,VALID,93.0661,VALID,0,VALID,22.6672,VALID,332,VALID,0,
2012-06-27, 01:26:04,VALID,1000.38,VALID,0,VALID,93.0356,VALID,0,VALID,22.6672,VALID,332,VALID,0,
2012-06-27, 01:27:04,VALID,1000.39,VALID,0,VALID,93.0737,VALID,0,VALID,22.6477,VALID,332,VALID,0,
2012-06-27, 01:28:04,VALID,1000.43,VALID,0,VALID,93.0432,VALID,0,VALID,22.6282,VALID,332,VALID,0.0597656,
2012-06-27, 01:29:04,VALID,1000.43,VALID,0,VALID,92.944,VALID,0,VALID,22.5892,VALID,332,VALID,0.0722656,
2012-06-27, 01:30:04,VALID,1000.45,VALID,0,VALID,93.1805,VALID,0,VALID,22.6069,VALID,332,VALID,0.477344,
2012-06-27, 01:31:04,VALID,1000.49,VALID,0,VALID,93.5391,VALID,0,VALID,22.6867,VALID,332,VALID,0.401953,
2012-06-27, 01:32:04,VALID,1000.46,VALID,0,VALID,93.6307,VALID,0,VALID,22.7647,VALID,332,VALID,0.308984,
2012-06-27, 01:33:04,VALID,1000.44,VALID,0,VALID,93.6383,VALID,0,VALID,22.8232,VALID,332,VALID,0.377344,
2012-06-27, 01:34:04,VALID,1000.41,VALID,0,VALID,93.5468,VALID,0,VALID,22.9208,VALID,332,VALID,0.00585938,
2012-06-27, 01:35:04,VALID,1000.42,VALID,0,VALID,93.3255,VALID,0,VALID,22.9793,VALID,21,VALID,0.771094,
2012-06-27, 01:36:04,VALID,1000.41,VALID,0,VALID,93.2492,VALID,0,VALID,23.1141,VALID,138,VALID,0.791016,
2012-06-27, 01:37:04,VALID,1000.38,VALID,0,VALID,92.6923,VALID,0,VALID,23.311,VALID,141,VALID,1.08828,
2012-06-27, 01:38:04,VALID,1000.42,VALID,0,VALID,91.7614,VALID,0,VALID,23.4475,VALID,155,VALID,1.0332,
2012-06-27, 01:39:04,VALID,1000.44,VALID,0,VALID,90.6094,VALID,0,VALID,23.5433,VALID,155,VALID,0.95625,
2012-06-27, 01:40:04,VALID,1000.49,VALID,0,VALID,90.06,VALID,0,VALID,23.6427,VALID,155,VALID,1.38984,
2012-06-27, 01:41:04,VALID,1000.49,VALID,0,VALID,89.5412,VALID,0,VALID,23.7189,VALID,155,VALID,1.16641,
2012-06-27, 01:42:04,VALID,1000.53,VALID,0,VALID,89.0682,VALID,0,VALID,23.7793,VALID,155,VALID,1.05195,
2012-06-27, 01:43:04,VALID,1000.51,VALID,0,VALID,88.9766,VALID,0,VALID,23.7775,VALID,155,VALID,1.1043,
2012-06-27, 01:44:04,VALID,1000.49,VALID,0,VALID,88.5646,VALID,0,VALID,23.8183,VALID,155,VALID,0.951563,
2012-06-27, 01:45:04,VALID,1000.46,VALID,0,VALID,88.4807,VALID,0,VALID,23.7775,VALID,155,VALID,1.13008,
2012-06-27, 01:46:04,VALID,1000.45,VALID,0,VALID,88.969,VALID,0,VALID,23.8165,VALID,158,VALID,1.1168,
2012-06-27, 01:47:04,VALID,1000.43,VALID,0,VALID,89.1368,VALID,0,VALID,23.8768,VALID,164,VALID,0.924609,
2012-06-27, 01:48:04,VALID,1000.43,VALID,0,VALID,89.0071,VALID,0.104696,VALID,23.8945,VALID,154,VALID,0.739453,
2012-06-27, 01:49:04,VALID,1000.43,VALID,0,VALID,88.7783,VALID,0.104696,VALID,23.9159,VALID,154,VALID,0.989062,
2012-06-27, 01:50:04,VALID,1000.44,VALID,0,VALID,88.5036,VALID,0,VALID,23.914,VALID,154,VALID,0.578125,
2012-06-27, 01:51:04,VALID,1000.42,VALID,0,VALID,88.2671,VALID,0,VALID,23.875,VALID,154,VALID,0.265234,
2012-06-27, 01:52:04,VALID,1000.41,VALID,0,VALID,87.7177,VALID,0,VALID,23.8378,VALID,154,VALID,0.00195313,
2012-06-27, 01:53:04,VALID,1000.38,VALID,0,VALID,86.7717,VALID,0,VALID,23.7012,VALID,154,VALID,0.36875,
2012-06-27, 01:54:04,VALID,1000.4,VALID,0,VALID,87.5499,VALID,0,VALID,23.5451,VALID,154,VALID,0.256641,
2012-06-27, 01:55:04,VALID,1000.33,VALID,0,VALID,88.1679,VALID,0,VALID,23.3695,VALID,154,VALID,0.185156,
2012-06-27, 01:56:04,VALID,1000.27,VALID,0,VALID,89.2742,VALID,0,VALID,23.2507,VALID,154,VALID,0.510547,
2012-06-27, 01:57:04,VALID,1000.26,VALID,0,VALID,89.9456,VALID,0,VALID,23.1531,VALID,41,VALID,0.746484,
2012-06-27, 01:58:04,VALID,1000.25,VALID,0,VALID,90.8764,VALID,0,VALID,23.0964,VALID,37,VALID,0.517969,
2012-06-27, 01:59:04,VALID,1000.26,VALID,0,VALID,91.2579,VALID,0,VALID,23.0378,VALID,37,VALID,0.957812,
2012-06-27, 02:00:04,VALID,1000.23,VALID,0,VALID,91.5478,VALID,0,VALID,22.9581,VALID,22,VALID,1.05039,
2012-06-27, 02:01:04,VALID,1000.22,VALID,0,VALID,91.5707,VALID,0,VALID,22.9208,VALID,22,VALID,0.666016,
2012-06-27, 02:02:04,VALID,1000.16,VALID,0,VALID,91.5326,VALID,0,VALID,22.8232,VALID,22,VALID,0.563281,
2012-06-27, 02:03:04,VALID,1000.13,VALID,0,VALID,91.9674,VALID,0,VALID,22.724,VALID,22,VALID,0.486719,
2012-06-27, 02:04:04,VALID,1000.1,VALID,0,VALID,92.326,VALID,0,VALID,22.7062,VALID,22,VALID,0.730078,
2012-06-27, 02:05:04,VALID,1000.08,VALID,0,VALID,92.7991,VALID,0,VALID,22.6867,VALID,22,VALID,0.671875,
2012-06-27, 02:06:04,VALID,1000.1,VALID,0,VALID,92.8601,VALID,0,VALID,22.6884,VALID,22,VALID,0.520703,
2012-06-27, 02:07:04,VALID,1000.1,VALID,0,VALID,92.822,VALID,0,VALID,22.6494,VALID,22,VALID,0.399609,
2012-06-27, 02:08:04,VALID,1000.1,VALID,0,VALID,92.7762,VALID,0,VALID,22.5892,VALID,22,VALID,0.625391,
2012-06-27, 02:09:04,VALID,1000.11,VALID,0,VALID,93.1958,VALID,0,VALID,22.6104,VALID,22,VALID,0.789063,
2012-06-27, 02:10:04,VALID,1000.12,VALID,0,VALID,93.295,VALID,0,VALID,22.6104,VALID,22,VALID,0.807422,
2012-06-27, 02:11:04,VALID,1000.11,VALID,0,VALID,92.9822,VALID,0,VALID,22.5909,VALID,22,VALID,0.646484,
2012-06-27, 02:12:04,VALID,1000.13,VALID,0,VALID,93.089,VALID,0,VALID,22.5519,VALID,22,VALID,0.514844,
2012-06-27, 02:13:04,VALID,1000.14,VALID,0,VALID,92.9745,VALID,0,VALID,22.5323,VALID,22,VALID,0.630469,
2012-06-27, 02:14:04,VALID,1000.17,VALID,0,VALID,93.1119,VALID,0,VALID,22.4933,VALID,22,VALID,0.736719,
2012-06-27, 02:15:04,VALID,1000.19,VALID,0,VALID,93.234,VALID,0,VALID,22.4738,VALID,22,VALID,0.774219,
2012-06-27, 02:16:04,VALID,1000.22,VALID,0,VALID,93.3103,VALID,0,VALID,22.4526,VALID,11,VALID,0.714453,
2012-06-27, 02:17:04,VALID,1000.19,VALID,0,VALID,93.295,VALID,0,VALID,22.4543,VALID,8,VALID,0.417578,
2012-06-27, 02:18:04,VALID,1000.2,VALID,0,VALID,93.4476,VALID,0,VALID,22.4543,VALID,8,VALID,0.403516,
2012-06-27, 02:19:04,VALID,1000.19,VALID,0,VALID,93.5849,VALID,0,VALID,22.4526,VALID,8,VALID,0,
2012-06-27, 02:20:04,VALID,1000.16,VALID,0,VALID,93.7757,VALID,0,VALID,22.4526,VALID,8,VALID,0.478906,
2012-06-27, 02:21:04,VALID,1000.15,VALID,0,VALID,93.9435,VALID,0,VALID,22.4721,VALID,8,VALID,0.322266,
2012-06-27, 02:22:04,VALID,1000.12,VALID,0,VALID,93.7223,VALID,0,VALID,22.3924,VALID,8,VALID,0.329297,
2012-06-27, 02:23:04,VALID,1000.11,VALID,0,VALID,93.707,VALID,0,VALID,22.3941,VALID,8,VALID,0.421875,
2012-06-27, 02:24:04,VALID,1000.09,VALID,0,VALID,93.8214,VALID,0,VALID,22.3941,VALID,8,VALID,0.451172,
2012-06-27, 02:25:04,VALID,1000.13,VALID,0,VALID,93.5468,VALID,0,VALID,22.3144,VALID,12,VALID,0.630078,
2012-06-27, 02:26:04,VALID,1000.14,VALID,0,VALID,93.7299,VALID,0,VALID,22.3356,VALID,24,VALID,0.659766,
2012-06-27, 02:27:04,VALID,1000.18,VALID,0,VALID,93.6765,VALID,0,VALID,22.3161,VALID,24,VALID,0.546094,
2012-06-27, 02:28:04,VALID,1000.18,VALID,0,VALID,93.501,VALID,0,VALID,22.2771,VALID,24,VALID,0.377734,
2012-06-27, 02:29:04,VALID,1000.21,VALID,0,VALID,93.4247,VALID,0,VALID,22.2771,VALID,24,VALID,0.204688,
2012-06-27, 02:30:04,VALID,1000.21,VALID,0,VALID,93.4018,VALID,0,VALID,22.2576,VALID,24,VALID,0,
2012-06-27, 02:31:04,VALID,1000.27,VALID,0,VALID,93.3866,VALID,0,VALID,22.2576,VALID,24,VALID,0,
2012-06-27, 02:32:04,VALID,1000.27,VALID,0,VALID,93.44,VALID,0,VALID,22.2381,VALID,24,VALID,0,
2012-06-27, 02:33:04,VALID,1000.29,VALID,0,VALID,93.6154,VALID,0,VALID,22.2576,VALID,24,VALID,0,
2012-06-27, 02:34:04,VALID,1000.25,VALID,0,VALID,93.7528,VALID,0,VALID,22.2966,VALID,24,VALID,0,
2012-06-27, 02:35:04,VALID,1000.26,VALID,0,VALID,93.8672,VALID,0.104696,VALID,22.3161,VALID,24,VALID,0,
2012-06-27, 02:36:04,VALID,1000.25,VALID,0,VALID,93.913,VALID,0,VALID,22.3356,VALID,24,VALID,0,
2012-06-27, 02:37:04,VALID,1000.23,VALID,0,VALID,93.913,VALID,0,VALID,22.3356,VALID,24,VALID,0,
2012-06-27, 02:38:04,VALID,1000.2,VALID,0,VALID,93.9435,VALID,0,VALID,22.3356,VALID,24,VALID,0,
2012-06-27, 02:39:04,VALID,1000.24,VALID,0,VALID,93.974,VALID,0.104696,VALID,22.3551,VALID,24,VALID,0,
2012-06-27, 02:40:04,VALID,1000.25,VALID,0,VALID,93.9359,VALID,0,VALID,22.3551,VALID,24,VALID,0,
2012-06-27, 02:41:04,VALID,1000.26,VALID,0,VALID,93.852,VALID,0.104696,VALID,22.3144,VALID,24,VALID,0,
2012-06-27, 02:42:04,VALID,1000.26,VALID,0,VALID,93.9054,VALID,0,VALID,22.3551,VALID,24,VALID,0,
2012-06-27, 02:43:04,VALID,1000.25,VALID,0,VALID,93.9969,VALID,0,VALID,22.3746,VALID,24,VALID,0,
2012-06-27, 02:44:04,VALID,1000.26,VALID,0,VALID,94.1266,VALID,0,VALID,22.3941,VALID,24,VALID,0,
2012-06-27, 02:45:04,VALID,1000.23,VALID,0,VALID,94.1724,VALID,0,VALID,22.3941,VALID,24,VALID,0,
2012-06-27, 02:46:04,VALID,1000.22,VALID,0,VALID,94.2029,VALID,0,VALID,22.4331,VALID,24,VALID,0,
2012-06-27, 02:47:04,VALID,1000.22,VALID,0,VALID,94.1953,VALID,0,VALID,22.4119,VALID,24,VALID,0,
2012-06-27, 02:48:04,VALID,1000.18,VALID,0,VALID,94.2029,VALID,0.104696,VALID,22.4526,VALID,24,VALID,0,
2012-06-27, 02:49:04,VALID,1000.2,VALID,0,VALID,94.1953,VALID,0,VALID,22.4526,VALID,24,VALID,0,
2012-06-27, 02:50:04,VALID,1000.16,VALID,0,VALID,94.2029,VALID,0.104696,VALID,22.4526,VALID,24,VALID,0,
2012-06-27, 02:51:04,VALID,1000.14,VALID,0,VALID,94.2563,VALID,0,VALID,22.4526,VALID,24,VALID,0,
2012-06-27, 02:52:04,VALID,1000.11,VALID,0,VALID,94.2716,VALID,0,VALID,22.4721,VALID,24,VALID,0.467969,
2012-06-27, 02:53:04,VALID,1000.08,VALID,0,VALID,94.264,VALID,0,VALID,22.4721,VALID,24,VALID,0.501562,
2012-06-27, 02:54:04,VALID,1000.06,VALID,0,VALID,94.1877,VALID,0,VALID,22.4526,VALID,24,VALID,0.485938,
2012-06-27, 02:55:04,VALID,1000.07,VALID,0,VALID,94.1724,VALID,0,VALID,22.4526,VALID,24,VALID,0.386328,
2012-06-27, 02:56:04,VALID,1000.07,VALID,0,VALID,94.1953,VALID,0,VALID,22.4331,VALID,24,VALID,0.576953,
2012-06-27, 02:57:04,VALID,1000.09,VALID,0,VALID,94.0427,VALID,0,VALID,22.3746,VALID,24,VALID,0.626172,
2012-06-27, 02:58:04,VALID,1000.07,VALID,0,VALID,93.8672,VALID,0,VALID,22.2966,VALID,21,VALID,0.774219,
2012-06-27, 02:59:04,VALID,1000.11,VALID,0,VALID,93.707,VALID,0.104696,VALID,22.1779,VALID,20,VALID,0.769141,
2012-06-27, 03:00:04,VALID,1000.11,VALID,0,VALID,94.2411,VALID,0,VALID,22.199,VALID,20,VALID,0.74375,
2012-06-27, 03:01:04,VALID,1000.1,VALID,0,VALID,94.5539,VALID,0,VALID,22.2381,VALID,20,VALID,0.682031,
2012-06-27, 03:02:04,VALID,1000.08,VALID,0,VALID,94.7675,VALID,0,VALID,22.2381,VALID,20,VALID,1.05195,
2012-06-27, 03:03:04,VALID,1000.09,VALID,0,VALID,94.8667,VALID,0,VALID,22.2381,VALID,15,VALID,0.710547,
2012-06-27, 03:04:04,VALID,1000.11,VALID,0,VALID,94.9888,VALID,0.104696,VALID,22.2576,VALID,15,VALID,0.469141,
2012-06-27, 03:05:04,VALID,1000.08,VALID,0,VALID,95.0803,VALID,0,VALID,22.2771,VALID,15,VALID,0.691016,
2012-06-27, 03:06:04,VALID,1000.09,VALID,0,VALID,95.1261,VALID,0,VALID,22.2771,VALID,15,VALID,0.672656,
2012-06-27, 03:07:04,VALID,1000.07,VALID,0,VALID,95.1719,VALID,0,VALID,22.2576,VALID,15,VALID,0.355469,
2012-06-27, 03:08:04,VALID,1000.06,VALID,0,VALID,95.1261,VALID,0,VALID,22.2186,VALID,15,VALID,0.307031,
2012-06-27, 03:09:04,VALID,1000.04,VALID,0,VALID,95.0956,VALID,0,VALID,22.199,VALID,15,VALID,0.410156,
2012-06-27, 03:10:04,VALID,1000.03,VALID,0,VALID,95.1185,VALID,0,VALID,22.199,VALID,15,VALID,0.547656,
2012-06-27, 03:11:04,VALID,1000.03,VALID,0,VALID,95.2024,VALID,0,VALID,22.199,VALID,15,VALID,0.689453,
2012-06-27, 03:12:04,VALID,1000.02,VALID,0,VALID,95.1948,VALID,0,VALID,22.1795,VALID,15,VALID,0.633984,
2012-06-27, 03:13:04,VALID,999.988,VALID,0,VALID,95.1795,VALID,0,VALID,22.1405,VALID,15,VALID,0.576172,
2012-06-27, 03:14:04,VALID,999.951,VALID,0,VALID,95.1948,VALID,0,VALID,22.1405,VALID,15,VALID,0.601172,
2012-06-27, 03:15:04,VALID,999.941,VALID,0,VALID,95.2558,VALID,0,VALID,22.16,VALID,15,VALID,0.604297,
2012-06-27, 03:16:04,VALID,999.928,VALID,0,VALID,95.3016,VALID,0,VALID,22.199,VALID,15,VALID,0.258984,
2012-06-27, 03:17:04,VALID,999.905,VALID,0,VALID,95.3397,VALID,0,VALID,22.199,VALID,15,VALID,0.425,
2012-06-27, 03:18:04,VALID,999.944,VALID,0,VALID,95.3397,VALID,0,VALID,22.2186,VALID,15,VALID,0.395703,
2012-06-27, 03:19:04,VALID,999.912,VALID,0,VALID,95.3703,VALID,0,VALID,22.2397,VALID,315,VALID,0.646875,
2012-06-27, 03:20:04,VALID,999.945,VALID,0,VALID,95.4237,VALID,0,VALID,22.2788,VALID,315,VALID,0.648438,
2012-06-27, 03:21:04,VALID,999.961,VALID,0,VALID,95.4618,VALID,0,VALID,22.3568,VALID,315,VALID,0.55625,
2012-06-27, 03:22:04,VALID,999.973,VALID,0,VALID,95.4771,VALID,0,VALID,22.3958,VALID,317,VALID,0.673828,
2012-06-27, 03:23:04,VALID,999.931,VALID,0,VALID,95.5,VALID,0,VALID,22.4348,VALID,319,VALID,0.953906,
2012-06-27, 03:24:04,VALID,999.973,VALID,0,VALID,95.4694,VALID,0,VALID,22.4348,VALID,319,VALID,0.778125,
2012-06-27, 03:25:04,VALID,999.959,VALID,0,VALID,95.4542,VALID,0,VALID,22.4331,VALID,319,VALID,0.470313,
2012-06-27, 03:26:04,VALID,999.952,VALID,0,VALID,95.4084,VALID,0,VALID,22.4738,VALID,319,VALID,0.473047,
2012-06-27, 03:27:04,VALID,999.972,VALID,0,VALID,95.4084,VALID,0,VALID,22.4916,VALID,319,VALID,0.601953,
2012-06-27, 03:28:04,VALID,999.948,VALID,0,VALID,95.4008,VALID,0,VALID,22.5128,VALID,319,VALID,0.434375,
2012-06-27, 03:29:04,VALID,999.978,VALID,0,VALID,95.3474,VALID,0,VALID,22.5323,VALID,319,VALID,0.482422,
2012-06-27, 03:30:04,VALID,1000.02,VALID,0,VALID,95.3245,VALID,0,VALID,22.5323,VALID,319,VALID,0.272266,
2012-06-27, 03:31:04,VALID,1000.04,VALID,0,VALID,95.2329,VALID,0,VALID,22.5128,VALID,319,VALID,0.296094,
2012-06-27, 03:32:04,VALID,1000.07,VALID,0,VALID,95.0193,VALID,0,VALID,22.3958,VALID,319,VALID,0.423047,
2012-06-27, 03:33:04,VALID,1000.1,VALID,0,VALID,94.9201,VALID,0,VALID,22.3568,VALID,72,VALID,0.983594,
2012-06-27, 03:34:04,VALID,1000.1,VALID,0,VALID,94.7446,VALID,0,VALID,22.2966,VALID,88,VALID,1.19727,
2012-06-27, 03:35:04,VALID,1000.14,VALID,0,VALID,94.5844,VALID,0,VALID,22.2381,VALID,81,VALID,1.05469,
2012-06-27, 03:36:04,VALID,1000.14,VALID,0,VALID,94.5386,VALID,0,VALID,22.2186,VALID,78,VALID,0.677344,
2012-06-27, 03:37:04,VALID,1000.16,VALID,0,VALID,94.4776,VALID,0.104696,VALID,22.2186,VALID,78,VALID,0.582422,
2012-06-27, 03:38:04,VALID,1000.13,VALID,0,VALID,94.5157,VALID,0,VALID,22.1779,VALID,78,VALID,0.46875,
2012-06-27, 03:39:04,VALID,1000.14,VALID,0,VALID,94.5539,VALID,0.104696,VALID,22.199,VALID,78,VALID,0.356641,
2012-06-27, 03:40:04,VALID,1000.1,VALID,0,VALID,94.6073,VALID,0.104696,VALID,22.2186,VALID,78,VALID,0.336328,
2012-06-27, 03:41:04,VALID,1000.09,VALID,0,VALID,94.6378,VALID,0.104696,VALID,22.199,VALID,78,VALID,0.142578,
2012-06-27, 03:42:04,VALID,1000.14,VALID,0,VALID,94.7065,VALID,0,VALID,22.1974,VALID,78,VALID,0.128125,
2012-06-27, 03:43:04,VALID,1000.15,VALID,0,VALID,94.7294,VALID,0,VALID,22.1974,VALID,78,VALID,0.289453,
2012-06-27, 03:44:04,VALID,1000.15,VALID,0,VALID,94.7217,VALID,0,VALID,22.199,VALID,78,VALID,0.49375,
2012-06-27, 03:45:04,VALID,1000.2,VALID,0,VALID,94.8209,VALID,0,VALID,22.2576,VALID,79,VALID,0.792969,
2012-06-27, 03:46:04,VALID,1000.18,VALID,0,VALID,94.9811,VALID,0,VALID,22.3161,VALID,79,VALID,0.812109,
2012-06-27, 03:47:04,VALID,1000.22,VALID,0,VALID,94.9735,VALID,0,VALID,22.3551,VALID,86,VALID,0.939844,